When you browse on this site, cookies collect data to enhance your experience and personalize the content and advertising you see.
Visit our Privacy Policy to learn more. By continuing to use the site, you agree to this use of cookies and data.
  • In Latvia
  • List of Countries
  • For 7 days
  • Water Temperature
  • Weather Map
  • Weather Widgets
  • user-avatar
    Login

    Hourly Weather Predgornoe

    Today, 7 April, Tuesday

    Time Temperature Precipitation Wind Pressure Humidity
    00:00 +5°C° 0 mm 0 mps 736 mmHg 81%
    01:00 +6°C° 0 mm 1 mps 736 mmHg 81%
    02:00 +6°C° 0 mm 1 mps 736 mmHg 81%
    03:00 +6°C° 0 mm 1 mps 736 mmHg 82%
    04:00 +6°C° 0 mm 1 mps 736 mmHg 82%
    05:00 +5°C° 0 mm 1 mps 736 mmHg 83%
    06:00 +6°C° 0 mm 1 mps 736 mmHg 82%
    07:00 +7°C° 0 mm 2 mps 736 mmHg 82%
    08:00 +8°C° 0 mm 2 mps 735 mmHg 81%
    09:00 +9°C° 0 mm 3 mps 735 mmHg 77%
    10:00 +11°C° 0 mm 3 mps 735 mmHg 73%
    11:00 +13°C° 0 mm 3 mps 734 mmHg 68%
    12:00 +14°C° 0 mm 3 mps 734 mmHg 64%
    13:00 +15°C° 0 mm 4 mps 733 mmHg 60%
    14:00 +16°C° 0 mm 5 mps 733 mmHg 56%
    15:00 +15°C° 0 mm 4 mps 733 mmHg 58%
    16:00 +14°C° 0 mm 4 mps 733 mmHg 60%
    17:00 +13°C° 0 mm 4 mps 733 mmHg 62%
    18:00 +12°C° 0 mm 4 mps 733 mmHg 65%
    19:00 +11°C° 0 mm 3 mps 733 mmHg 67%
    20:00 +9°C° 0 mm 3 mps 733 mmHg 70%
    21:00 +9°C° 0 mm 3 mps 733 mmHg 70%
    22:00 +9°C° 0 mm 3 mps 733 mmHg 70%
    23:00 +9°C° 0 mm 3 mps 733 mmHg 69%

    Tomorrow, 8 April, Wednesday

    Time Temperature Precipitation Wind Pressure Humidity
    00:00 +9°C° 0 mm 2 mps 733 mmHg 70%
    01:00 +9°C° 0 mm 2 mps 733 mmHg 71%
    02:00 +9°C° 0 mm 2 mps 733 mmHg 71%
    03:00 +8°C° 0 mm 2 mps 734 mmHg 73%
    04:00 +8°C° 0 mm 3 mps 735 mmHg 74%
    05:00 +7°C° 0 mm 3 mps 736 mmHg 75%
    06:00 +5°C° 1 mm 3 mps 736 mmHg 80%
    07:00 +4°C° 1 mm 2 mps 737 mmHg 86%
    08:00 +3°C° 1 mm 2 mps 738 mmHg 92%
    09:00 +3°C° 0.5 mm 2 mps 738 mmHg 91%
    10:00 +3°C° 0.5 mm 2 mps 738 mmHg 91%
    11:00 +4°C° 0.5 mm 2 mps 738 mmHg 91%
    12:00 +4°C° 0.1 mm 2 mps 738 mmHg 88%
    13:00 +4°C° 0.1 mm 2 mps 738 mmHg 86%
    14:00 +5°C° 0.1 mm 2 mps 738 mmHg 84%
    15:00 +5°C° 0.1 mm 2 mps 738 mmHg 85%
    16:00 +5°C° 0.1 mm 2 mps 739 mmHg 86%
    17:00 +4°C° 0.1 mm 2 mps 739 mmHg 87%
    18:00 +4°C° 0.1 mm 2 mps 739 mmHg 89%
    19:00 +4°C° 0.1 mm 2 mps 738 mmHg 92%
    20:00 +4°C° 0.1 mm 1 mps 738 mmHg 94%
    21:00 +4°C° 0 mm 1 mps 738 mmHg 93%
    22:00 +4°C° 0 mm 1 mps 738 mmHg 92%
    23:00 +4°C° 0 mm 1 mps 738 mmHg 92%

    Day after tomorrow, 9 April, Thursday

    Time Temperature Precipitation Wind Pressure Humidity
    00:00 +4°C° 0.2 mm 1 mps 738 mmHg 92%
    01:00 +4°C° 0.2 mm 1 mps 738 mmHg 92%
    02:00 +3°C° 0.2 mm 2 mps 738 mmHg 92%
    03:00 +3°C° 0.4 mm 2 mps 738 mmHg 94%
    04:00 +2°C° 0.4 mm 2 mps 738 mmHg 95%
    05:00 +2°C° 0.4 mm 2 mps 738 mmHg 96%
    06:00 +2°C° 0.6 mm 3 mps 738 mmHg 95%
    07:00 +1°C° 0.6 mm 4 mps 739 mmHg 93%
    08:00 +1°C° 0.6 mm 4 mps 739 mmHg 91%
    09:00 +1°C° 0.4 mm 5 mps 739 mmHg 90%
    10:00 +1°C° 0.4 mm 5 mps 740 mmHg 90%
    11:00 +1°C° 0.4 mm 6 mps 740 mmHg 89%
    12:00 +1°C° 0.5 mm 6 mps 741 mmHg 88%
    13:00 +1°C° 0.5 mm 6 mps 741 mmHg 87%
    14:00 +1°C° 0.5 mm 6 mps 742 mmHg 85%
    15:00 +1°C° 0.1 mm 6 mps 743 mmHg 84%
    16:00 0°C° 0.1 mm 5 mps 744 mmHg 82%
    17:00 0°C° 0.1 mm 4 mps 744 mmHg 81%
    18:00 +1°C° 0 mm 3 mps 745 mmHg 81%
    19:00 +2°C° 0 mm 2 mps 746 mmHg 81%
    20:00 +2°C° 0 mm 0 mps 747 mmHg 82%
    21:00 +1°C° 0 mm 0 mps 747 mmHg 82%
    22:00 +1°C° 0 mm 0 mps 748 mmHg 82%
    23:00 +1°C° 0 mm 0 mps 748 mmHg 81%

    10 April, Friday

    Time Temperature Precipitation Wind Pressure Humidity
    00:00 +1°C° 0 mm 0 mps 748 mmHg 82%
    01:00 0°C° 0 mm 0 mps 748 mmHg 82%
    02:00 +1°C° 0 mm 1 mps 748 mmHg 82%
    03:00 +1°C° 0 mm 1 mps 748 mmHg 82%
    04:00 +1°C° 0 mm 1 mps 748 mmHg 83%
    05:00 +1°C° 0 mm 1 mps 749 mmHg 83%
    06:00 +2°C° 0 mm 1 mps 748 mmHg 77%
    07:00 +4°C° 0 mm 1 mps 748 mmHg 71%
    08:00 +5°C° 0 mm 1 mps 748 mmHg 65%
    09:00 +6°C° 0 mm 1 mps 748 mmHg 59%
    10:00 +7°C° 0 mm 1 mps 748 mmHg 53%
    11:00 +9°C° 0 mm 1 mps 747 mmHg 47%
    12:00 +9°C° 0 mm 1 mps 747 mmHg 44%
    13:00 +10°C° 0 mm 1 mps 747 mmHg 41%
    14:00 +10°C° 0 mm 1 mps 747 mmHg 38%
    15:00 +10°C° 0 mm 1 mps 746 mmHg 39%
    16:00 +10°C° 0 mm 1 mps 746 mmHg 41%
    17:00 +10°C° 0 mm 1 mps 746 mmHg 43%
    18:00 +8°C° 0 mm 1 mps 746 mmHg 48%
    19:00 +7°C° 0 mm 1 mps 746 mmHg 53%
    20:00 +6°C° 0 mm 1 mps 746 mmHg 58%
    21:00 +5°C° 0 mm 1 mps 746 mmHg 61%
    22:00 +5°C° 0 mm 1 mps 746 mmHg 64%
    23:00 +4°C° 0 mm 1 mps 746 mmHg 68%

    11 April, Saturday

    Time Temperature Precipitation Wind Pressure Humidity
    00:00 +4°C° 0 mm 1 mps 746 mmHg 69%
    01:00 +3°C° 0 mm 1 mps 746 mmHg 71%
    02:00 +3°C° 0 mm 1 mps 746 mmHg 73%
    03:00 +3°C° 0 mm 1 mps 746 mmHg 73%
    04:00 +2°C° 0 mm 1 mps 746 mmHg 73%
    05:00 +2°C° 0 mm 1 mps 746 mmHg 73%
    06:00 +4°C° 0 mm 1 mps 745 mmHg 67%
    07:00 +5°C° 0 mm 1 mps 745 mmHg 60%
    08:00 +6°C° 0 mm 2 mps 745 mmHg 54%
    09:00 +7°C° 0 mm 2 mps 745 mmHg 48%
    10:00 +9°C° 0 mm 2 mps 744 mmHg 43%
    11:00 +10°C° 0 mm 2 mps 744 mmHg 38%
    12:00 +12°C° 0 mm 2 mps 743 mmHg 35%
    13:00 +12°C° 0 mm 2 mps 743 mmHg 33%
    14:00 +13°C° 0 mm 2 mps 743 mmHg 31%
    15:00 +12°C° 0 mm 3 mps 742 mmHg 35%
    16:00 +12°C° 0 mm 3 mps 742 mmHg 39%
    17:00 +11°C° 0 mm 3 mps 742 mmHg 43%
    18:00 +10°C° 0 mm 2 mps 742 mmHg 50%
    19:00 +8°C° 0 mm 2 mps 742 mmHg 57%
    20:00 +6°C° 0 mm 2 mps 741 mmHg 64%
    21:00 +7°C° 0 mm 1 mps 741 mmHg 67%
    22:00 +6°C° 0 mm 1 mps 741 mmHg 70%
    23:00 +6°C° 0 mm 1 mps 740 mmHg 73%

    12 April, Sunday

    Time Temperature Precipitation Wind Pressure Humidity
    00:00 +5°C° 0 mm 1 mps 740 mmHg 74%
    01:00 +5°C° 0 mm 1 mps 740 mmHg 76%
    02:00 +5°C° 0 mm 1 mps 740 mmHg 77%
    03:00 +4°C° 0 mm 1 mps 739 mmHg 77%
    04:00 +4°C° 0 mm 1 mps 739 mmHg 76%
    05:00 +4°C° 0 mm 1 mps 739 mmHg 76%
    06:00 +5°C° 0 mm 1 mps 739 mmHg 69%
    07:00 +7°C° 0 mm 1 mps 739 mmHg 61%
    08:00 +8°C° 0 mm 1 mps 738 mmHg 54%
    09:00 +10°C° 0 mm 1 mps 738 mmHg 49%
    10:00 +12°C° 0 mm 2 mps 737 mmHg 43%
    11:00 +14°C° 0 mm 2 mps 737 mmHg 38%
    12:00 +15°C° 0 mm 2 mps 736 mmHg 37%
    13:00 +16°C° 0 mm 2 mps 736 mmHg 36%
    14:00 +17°C° 0 mm 3 mps 736 mmHg 35%
    15:00 +17°C° 0 mm 3 mps 735 mmHg 38%
    16:00 +17°C° 0 mm 3 mps 735 mmHg 42%
    17:00 +17°C° 0 mm 3 mps 734 mmHg 45%
    18:00 +14°C° 0 mm 3 mps 734 mmHg 49%
    19:00 +13°C° 0 mm 3 mps 734 mmHg 53%
    20:00 +11°C° 0 mm 3 mps 734 mmHg 58%
    21:00 +12°C° 0 mm 2 mps 733 mmHg 59%
    22:00 +10°C° 0 mm 2 mps 733 mmHg 60%
    23:00 +9°C° 0 mm 2 mps 733 mmHg 62%
    Show more